Regional Weather Roundup
Issued by NWS

Home | Current Version | Previous Version | Graphics & Text | Print | Product List | Glossary On
Versions: 1 2 3 4 5 6 7 8 9 10 11 12 13 14 15 16 17 18 19 20 21 22 23 24 25 26 27 28 29 30 31 32 33 34 35 36 37 38 39 40 41 42 43 44 45 46 47 48 49 50
000
ASUS43 KOAX 291102
RWRNE

WEATHER ROUNDUP FOR NEBRASKA
NATIONAL WEATHER SERVICE OMAHA NE
600 AM CDT SUN MAY 29 2016

NOTES: SATELLITE DATA IS BEING USED TO AUGMENT CLOUD COVER ABOVE
       12000 FEET.
       "FAIR" INDICATES FEW OR NO CLOUDS BELOW 12,000 FEET WITH NO
       SIGNIFICANT WEATHER AND/OR OBSTRUCTIONS TO VISIBILITY.

  * THESE STATIONS DO NOT REPORT WEATHER SUCH AS RAIN...SNOW OR FOG.

NEZ001>004-019>022-054>056-291200-
NEBRASKA PANHANDLE

CITY           SKY/WX    TMP DP  RH WIND       PRES   REMARKS
SCOTTSBLUFF    CLEAR     45  43  93 W6        30.09R
ALLIANCE       MOCLDY    39  38  96 CALM      30.09R FOG
CHADRON        CLEAR     37  35  92 CALM      30.08R
SIDNEY         CLEAR     42  40  92 SW7       30.11S
$$

NEZ057>060-069>072-079>082-291200-
SOUTHWEST NEBRASKA

CITY           SKY/WX    TMP DP  RH WIND       PRES   REMARKS
NORTH PLATTE   CLEAR     46  46 100 CALM      30.09R
IMPERIAL       CLEAR     51  48  89 CALM      30.10R
LEXINGTON      CLEAR     51  49  92 NW7       30.08R
MCCOOK         CLEAR     53  48  83 CALM      30.07R
$$

NEZ005>010-023>029-035>040-094-291200-
NORTH CENTRAL NEBRASKA

CITY           SKY/WX    TMP DP  RH WIND       PRES   REMARKS
VALENTINE      CLEAR     49  47  93 SW6       30.07R
AINSWORTH      CLEAR     52  50  92 W5        30.07R
BROKEN BOW     CLEAR     53  50  89 CALM      30.06R
ORD            CLEAR     53  52  96 CALM      30.04R
$$

NEZ041-046>049-061>064-073>077-083>087-291200-
SOUTH CENTRAL NEBRASKA

CITY           SKY/WX    TMP DP  RH WIND       PRES   REMARKS
GRAND ISLAND   CLEAR     55  54  96 W5        30.06R FOG
HASTINGS       PTCLDY    54  52  93 CALM      30.06R
KEARNEY *      CLEAR     54  48  82 E5        30.08R
YORK           PTCLDY    55  54  94 CALM      30.05R
$$

NEZ011>018-030>034-042>045-291200-
NORTHEAST NEBRASKA

CITY           SKY/WX    TMP DP  RH WIND       PRES   REMARKS
NORFOLK        CLOUDY    55  53  93 CALM      30.02R
ALBION         CLEAR     53  51  91 CALM      30.05R
BLAIR          MOCLDY    57  56  95 CALM      30.04R
FREMONT        PTCLDY    55  55  97 CALM      30.04R
TEKAMAH        PTCLDY    54  52  93 S6        30.03R
$$

NEZ050>053-065>068-078-088>093-291200-
SOUTHEAST NEBRASKA

CITY           SKY/WX    TMP DP  RH WIND       PRES   REMARKS
LINCOLN        CLEAR     56  54  93 S3        30.04R
OMAHA EPPLEY   PTCLDY    56  53  90 E3        30.03R
FALLS CITY     CLEAR     58  57  97 CALM      30.04R
PLATTSMOUTH    CLEAR     58  56  92 S3        30.05R
$$

NEZ044-045-051>053-067-291200-
OMAHA AREA

CITY           SKY/WX    TMP DP  RH WIND       PRES   REMARKS
OMAHA EPPLEY   PTCLDY    56  53  90 E3        30.03R
BLAIR          MOCLDY    57  56  95 CALM      30.04R
FREMONT        PTCLDY    55  55  97 CALM      30.04R
OFFUTT AFB     PTCLDY    53  53 100 NW1       30.03R
PLATTSMOUTH    CLEAR     58  56  92 S3        30.05R
$$




USA.gov is the U.S. government's official web portal to all federal, state and local government web resources and services.